Group_ship,Cruise,JD_GMT,Date_DDMMYYYY,TIME_HH:MM:SS,Lat_dec_degree,Long_dec_degree,xCO2eq_ppm,xCO2a_ppm,Pres_Equi_hPa,Pres_sealevel_hPa,EqTemp_C,SST(TSG)_C,Sal(TSG)_Permil,Water_flow_l/min,Gasflow_IR_ml/min,Temp_IR_C,Pres_IR_hPa,Ship_heading_true_degree,Ship_speed_knot,Wind_dir_rel_degree,Wind_speed_rel_m/s,fCO2W@SST_uatm,Qcflag_water,fCO2a_uatm,Qcflag_air,dfCO2_uatm,Fluoro_ug/l,Wind_speed_true_m/s,Wind_dir_true_degree,Air_temp_C,Oxygen
AOML_Explorer,Ex0513W,87.182,28032005,4:21:40,24.464,-80.495,374.6,-9,1013.17,1010.71,25.76,26,36.222,1.35,76.43,31.73,1013.17,237.9,20.5,320,13.9,364.59,2,-9,9,-9,0.09,8.94,148.36,25.67,-9
AOML_Explorer,Ex0513W,87.184,28032005,4:24:13,24.457,-80.509,375.12,-9,1013.24,1010.71,25.8,26.03,36.223,1.35,76.36,31.73,1013.24,238.2,20.4,319,13.38,364.9,2,-9,9,-9,0.09,8.85,145.25,25.71,-9
AOML_Explorer,Ex0513W,87.185,28032005,4:26:46,24.449,-80.522,375.68,-9,1013.14,1010.71,25.84,26.02,36.225,1.34,75.86,31.73,1013.14,238.5,20.5,319,13.38,364.79,2,-9,9,-9,0.09,8.88,145.12,25.67,-9
AOML_Explorer,Ex0513W,87.187,28032005,4:29:19,24.441,-80.536,376.14,-9,1013.26,1010.69,25.85,26.02,36.219,1.35,76.24,31.72,1013.26,238.4,20.5,320,13.9,365.03,2,-9,9,-9,0.08,9.02,148.52,25.7,-9
AOML_Explorer,Ex0513W,87.189,28032005,4:31:52,24.434,-80.549,376.46,-9,1013.23,1010.71,25.84,26.02,36.223,1.37,76.54,31.72,1013.23,238.9,20.5,323,13.9,365.5,2,-9,9,-9,0.09,8.53,151.8,25.67,-9
AOML_Explorer,Ex0513W,87.191,28032005,4:34:25,24.426,-80.563,376.58,-9,1013.31,1011.00,25.85,26,36.222,1.36,75.64,31.72,1013.31,238.9,20.5,321,13.9,365.27,2,-9,9,-9,0.09,8.91,149.62,25.7,-9
AOML_Explorer,Ex0513W,87.192,28032005,4:36:58,24.419,-80.576,376.68,-9,1013.32,1010.97,25.85,25.99,36.221,1.37,75.74,31.71,1013.32,239.1,20.5,317,13.38,365.35,2,-9,9,-9,0.09,9.32,143.51,25.7,-9
AOML_Explorer,Ex0513W,87.194,28032005,4:39:31,24.412,-80.59,376.58,-9,1013.33,1010.71,25.84,25.99,36.22,1.37,75.64,31.7,1013.33,241.5,20.6,318,13.38,365.34,2,-9,9,-9,0.09,9.05,146.94,25.7,-9
AOML_Explorer,Ex0513W,87.196,28032005,4:42:04,24.405,-80.604,376.41,-9,1013.26,1010.73,25.83,25.98,36.225,1.36,76.4,31.7,1013.26,240.7,20.6,316,13.38,365.1,2,-9,9,-9,0.08,9.47,144.1,25.67,-9
AOML_Explorer,Ex0513W,87.198,28032005,4:44:37,24.398,-80.618,376.38,-9,1013.18,1010.73,25.83,25.97,36.222,1.36,75.75,31.69,1013.18,240.9,20.7,316,13.9,364.91,2,-9,9,-9,0.08,9.84,146.17,25.64,-9
AOML_Explorer,Ex0513W,87.199,28032005,4:47:10,24.39,-80.632,376.3,-9,1013.06,1010.42,25.81,25.94,36.226,1.34,75.95,31.69,1013.06,241.2,20.7,315,13.38,364.7,2,-9,9,-9,0.09,9.77,142.96,25.59,-9
AOML_Explorer,Ex0513W,87.201,28032005,4:49:43,24.383,-80.646,376.19,-9,1012.96,1010.41,25.8,25.92,36.222,1.25,75,31.68,1012.96,241,20.6,314,13.9,364.41,2,-9,9,-9,0.08,10.28,144.44,25.62,-9
AOML_Explorer,Ex0513W,87.203,28032005,4:52:16,24.376,-80.66,375.99,-9,1013.03,1010.41,25.77,25.92,36.216,1.25,76.07,31.67,1013.03,241.6,20.6,314,13.9,364.62,2,-9,9,-9,0.08,10.29,144.96,25.59,-9
AOML_Explorer,Ex0513W,87.205,28032005,4:54:49,24.369,-80.674,375.94,-9,1012.99,1010.40,25.76,25.92,36.214,1.23,76.36,31.67,1012.99,241.9,20.6,313,13.9,364.75,2,-9,9,-9,0.08,10.53,144.15,25.58,-9
AOML_Explorer,Ex0513W,87.207,28032005,4:57:22,24.363,-80.688,375.5,-9,1013.01,1010.39,25.75,25.96,36.207,1.2,76.02,31.66,1013.01,241.6,20.7,315,13.38,365.02,2,-9,9,-9,0.09,9.87,142.88,25.6,-9
AOML_Explorer,Ex0513W,87.208,28032005,4:59:55,24.356,-80.702,375.38,-9,1013.04,1010.73,25.77,25.98,36.217,1.38,74.86,31.65,1013.04,241.6,20.7,316,13.38,364.92,2,-9,9,-9,0.08,9.65,143.89,25.53,-9
AOML_Explorer,Ex0513W,87.222,28032005,5:19:07,24.314,-80.807,376.92,-9,1012.61,1010.15,25.99,26.17,36.218,1.36,76.06,31.68,1012.61,246.6,18.9,311,12.35,365.63,2,-9,9,-9,0.09,9.97,144.27,25.6,-9
AOML_Explorer,Ex0513W,87.223,28032005,5:21:40,24.308,-80.82,377.8,-9,1012.64,1010.13,26,26.15,36.22,1.38,76.09,31.68,1012.64,245.8,19,317,11.84,366.14,2,-9,9,-9,0.08,8.74,145.05,25.6,-9
AOML_Explorer,Ex0513W,87.225,28032005,5:24:13,24.303,-80.834,378.41,-9,1012.66,1010.19,25.98,26.12,36.219,1.37,74.2,31.67,1012.66,246,19,316,12.35,366.59,2,-9,9,-9,0.08,9.16,147.34,25.61,-9
AOML_Explorer,Ex0513W,87.227,28032005,5:26:46,24.297,-80.847,378.73,-9,1012.71,1010.20,25.96,26.1,36.222,1.4,76.45,31.67,1012.71,245.8,19.1,316,11.84,366.89,2,-9,9,-9,0.09,8.88,144.09,25.7,-9
AOML_Explorer,Ex0513W,87.229,28032005,5:29:19,24.292,-80.861,378.92,-9,1012.69,1010.19,25.94,26.07,36.226,1.4,76.51,31.67,1012.69,246.3,19,319,12.35,367.05,2,-9,9,-9,0.09,8.72,149.76,25.63,-9
AOML_Explorer,Ex0513W,87.231,28032005,5:31:52,24.286,-80.874,378.72,-9,1012.67,1010.19,25.92,26.11,36.221,1.41,76.44,31.66,1012.67,246.2,19,314,12.87,367.66,2,-9,9,-9,0.09,9.88,147.96,25.63,-9
AOML_Explorer,Ex0513W,87.232,28032005,5:34:25,24.281,-80.888,378.54,-9,1012.57,1010.21,25.93,26.09,36.228,1.42,75,31.65,1012.57,246.3,19,316,13.38,367.02,2,-9,9,-9,0.09,9.91,151.93,25.55,-9
AOML_Explorer,Ex0513W,87.234,28032005,5:36:58,24.276,-80.901,378.42,-9,1012.52,1010.15,25.94,26.07,36.23,1.4,75.33,31.64,1012.52,246.7,19,315,13.38,366.55,2,-9,9,-9,0.08,10.12,151.18,25.71,-9
AOML_Explorer,Ex0513W,87.236,28032005,5:39:31,24.27,-80.915,378.52,-9,1012.58,1010.13,25.91,26.06,36.233,1.38,76.16,31.63,1012.58,246.3,19.2,315,12.87,366.87,2,-9,9,-9,0.08,9.78,148.05,25.8,-9
AOML_Explorer,Ex0513W,87.238,28032005,5:42:04,24.265,-80.928,378.37,-9,1012.74,1010.39,25.92,26.06,36.235,1.41,75.02,31.63,1012.74,246.6,19.1,322,13.38,366.66,2,-9,9,-9,0.09,8.95,157.34,25.76,-9
AOML_Explorer,Ex0513W,87.239,28032005,5:44:37,24.259,-80.942,378.36,-9,1012.86,1010.48,25.91,26.09,36.223,1.41,76.92,31.62,1012.86,246.5,19.1,328,13.38,367.31,2,-9,9,-9,0.1,7.89,163.96,25.82,-9
AOML_Explorer,Ex0513W,87.241,28032005,5:47:10,24.254,-80.955,378.01,-9,1012.71,1010.13,25.91,26.13,36.227,1.39,76.33,31.61,1012.71,246,19.1,326,14.41,367.35,2,-9,9,-9,0.08,8.98,165.91,25.72,-9
AOML_Explorer,Ex0513W,87.243,28032005,5:49:43,24.248,-80.969,377.96,-9,1012.54,1010.19,25.94,26.19,36.223,1.38,76.12,31.6,1012.54,246.8,19.2,320,13.9,367.68,2,-9,9,-9,0.09,9.67,157.36,25.96,-9
AOML_Explorer,Ex0513W,87.245,28032005,5:52:16,24.243,-80.983,378.01,-9,1012.65,1010.14,25.98,26.21,36.231,1.37,75.91,31.59,1012.65,246.6,19.2,332,13.9,367.48,2,-9,9,-9,0.09,7.59,171.23,25.86,-9
AOML_Explorer,Ex0513W,87.246,28032005,5:54:49,24.238,-80.997,378.26,-9,1012.69,1010.21,26.02,26.27,36.23,1.38,76.22,31.59,1012.69,246.5,19.2,332,15.44,368.04,2,-9,9,-9,0.08,8.84,177.53,25.96,-9
AOML_Explorer,Ex0513W,87.248,28032005,5:57:22,24.232,-81.01,378.74,-9,1012.55,1009.86,26.06,26.36,36.224,1.4,76.14,31.58,1012.55,246.5,19.2,333,15.96,369.08,2,-9,9,-9,0.08,9.12,180.69,26.11,-9
AOML_Explorer,Ex0513W,87.25,28032005,5:59:55,24.227,-81.024,379.07,-9,1012.63,1009.91,26.13,26.37,36.244,1.38,76.37,31.58,1012.63,246.5,19.2,331,17.5,368.49,2,-9,9,-9,0.08,10.77,182.29,26.25,-9
AOML_Explorer,Ex0513W,87.263,28032005,6:19:07,24.186,-81.125,380.09,-9,1012.47,1009.14,25.95,25.97,36.271,1.37,76.35,31.61,1012.47,246.8,18.9,342,22.13,366.65,2,-9,9,-9,0.1,13.64,208.74,26.25,-9
AOML_Explorer,Ex0513W,87.265,28032005,6:21:40,24.181,-81.139,380.46,-9,1012.35,1009.33,25.86,25.83,36.296,1.37,76.21,31.61,1012.35,246.3,18.9,339,21.62,366.26,2,-9,9,-9,0.11,13.49,202.91,26.29,-9
AOML_Explorer,Ex0513W,87.267,28032005,6:24:13,24.176,-81.152,380.75,-9,1012.15,1009.68,25.76,25.61,36.325,1.38,76.49,31.6,1012.15,246.3,19.1,334,20.59,364.95,2,-9,9,-9,0.1,13.06,193.93,26.25,-9
AOML_Explorer,Ex0513W,87.269,28032005,6:26:46,24.17,-81.166,380.96,-9,1012.1,1009.68,25.61,25.33,36.339,1.36,75.85,31.6,1012.1,246.5,19.4,325,20.59,363.52,2,-9,9,-9,0.13,14.26,181.57,26.22,-9
AOML_Explorer,Ex0513W,87.27,28032005,6:29:19,24.165,-81.18,381.17,-9,1012.14,1009.39,25.41,25.16,36.276,1.38,75.27,31.59,1012.14,246.8,19.7,323,20.07,364.23,2,-9,9,-9,0.13,14.1,177.53,26.05,-9
AOML_Explorer,Ex0513W,87.272,28032005,6:31:52,24.159,-81.194,380.93,-9,1012.13,1009.36,25.19,25.02,36.223,1.38,76.46,31.59,1012.13,246.8,19.7,318,20.07,365.28,2,-9,9,-9,0.12,14.93,171.61,25.93,-9
AOML_Explorer,Ex0513W,87.274,28032005,6:34:25,24.154,-81.208,379.64,-9,1012.07,1009.35,25,25.04,36.226,1.37,76.23,31.59,1012.07,246.6,19.9,319,19.04,366.97,2,-9,9,-9,0.12,13.78,170.51,25.83,-9
AOML_Explorer,Ex0513W,87.276,28032005,6:36:58,24.148,-81.223,377.46,-9,1011.91,1009.38,24.99,25.1,36.219,1.36,76.83,31.58,1011.91,246.5,20.1,319,19.04,365.71,2,-9,9,-9,0.12,13.71,170.33,25.73,-9
AOML_Explorer,Ex0513W,87.277,28032005,6:39:31,24.142,-81.237,375.74,-9,1011.97,1009.35,25.01,25.04,36.224,1.35,74.19,31.57,1011.97,246.4,20.2,315,18.53,362.9,2,-9,9,-9,0.13,13.97,164.35,25.66,-9
AOML_Explorer,Ex0513W,87.279,28032005,6:42:04,24.137,-81.251,374.36,-9,1011.98,1009.42,24.98,25.06,36.214,1.37,75.76,31.57,1011.98,246.6,20.2,317,17.5,362.35,2,-9,9,-9,0.11,12.75,164.32,25.51,-9
AOML_Explorer,Ex0513W,87.281,28032005,6:44:37,24.131,-81.266,373.22,-9,1012.04,1009.43,24.98,25.02,36.237,1.38,74.93,31.56,1012.04,247.1,20.2,316,18.01,360.75,2,-9,9,-9,0.12,13.35,164.99,25.49,-9
AOML_Explorer,Ex0513W,87.283,28032005,6:47:10,24.125,-81.28,372.47,-9,1011.97,1009.38,24.95,24.98,36.252,1.37,76.52,31.55,1011.97,246.4,20.3,316,18.53,359.82,2,-9,9,-9,0.11,13.71,165.67,25.54,-9
AOML_Explorer,Ex0513W,87.285,28032005,6:49:43,24.119,-81.294,372.08,-9,1012.05,1009.38,24.91,24.86,36.289,1.37,76.2,31.55,1012.05,246.6,20.2,315,19.04,358.45,2,-9,9,-9,0.11,14.35,165.96,25.53,-9
AOML_Explorer,Ex0513W,87.286,28032005,6:52:16,24.114,-81.309,371.97,-9,1012.01,1009.09,24.83,24.83,36.303,1.32,76.33,31.54,1012.01,247,20.2,316,19.04,359.08,2,-9,9,-9,0.11,14.2,167.36,25.52,-9
AOML_Explorer,Ex0513W,87.288,28032005,6:54:49,24.108,-81.323,371.82,-9,1012.15,1009.42,24.78,24.85,36.311,1.35,76.41,31.53,1012.15,246.6,20.2,317,19.56,359.9,2,-9,9,-9,0.11,14.41,169.48,25.51,-9
AOML_Explorer,Ex0513W,87.29,28032005,6:57:22,24.102,-81.338,371.95,-9,1012.18,1009.65,24.78,24.81,36.326,1.37,76.9,31.53,1012.18,246.6,20.2,317,19.04,359.61,2,-9,9,-9,0.11,13.95,168.5,25.49,-9
AOML_Explorer,Ex0513W,87.292,28032005,6:59:55,24.097,-81.352,372.37,-9,1011.95,1009.35,24.75,24.82,36.331,1.34,76.47,31.52,1011.95,246.4,20.1,315,19.56,360.44,2,-9,9,-9,0.12,14.78,167.15,25.49,-9
AOML_Explorer,Ex0513W,87.305,28032005,7:19:07,24.054,-81.461,373.14,-9,1011.65,1009.10,24.54,24.58,36.386,1.36,76.26,31.55,1011.65,246.6,20.3,313,17.5,360.91,2,-9,9,-9,0.11,13.13,161.75,25.39,-9
AOML_Explorer,Ex0513W,87.307,28032005,7:21:40,24.048,-81.475,373.9,-9,1011.79,1009.10,24.54,24.57,36.394,1.36,76.14,31.55,1011.79,246.6,20.3,312,18.01,361.51,2,-9,9,-9,0.1,13.7,162.15,25.35,-9
AOML_Explorer,Ex0513W,87.309,28032005,7:24:13,24.042,-81.49,374.33,-9,1011.84,1008.81,24.52,24.61,36.379,1.36,76.06,31.55,1011.84,246.7,20.3,311,18.53,362.63,2,-9,9,-9,0.11,14.29,162.44,25.37,-9
AOML_Explorer,Ex0513W,87.31,28032005,7:26:46,24.037,-81.504,374.51,-9,1011.56,1008.81,24.52,24.44,36.415,1.35,76.24,31.54,1011.56,247.2,20.3,309,18.53,360.47,2,-9,9,-9,0.1,14.68,160.71,25.36,-9
AOML_Explorer,Ex0513W,87.312,28032005,7:29:19,24.031,-81.519,374.5,-9,1011.5,1008.81,24.49,24.44,36.378,1.37,77.02,31.54,1011.5,246.4,20.2,311,19.04,360.83,2,-9,9,-9,0.1,14.7,163.6,25.33,-9
AOML_Explorer,Ex0513W,87.314,28032005,7:31:52,24.025,-81.533,374.36,-9,1011.48,1008.56,24.38,24.52,36.369,1.36,75.84,31.53,1011.48,246.7,20.1,309,18.53,363.43,2,-9,9,-9,0.1,14.69,160.56,25.31,-9
AOML_Explorer,Ex0513W,87.316,28032005,7:34:25,24.019,-81.548,373.58,-9,1011.52,1008.81,24.41,24.6,36.368,1.37,76.07,31.53,1011.52,247,20.2,306,19.04,363.16,2,-9,9,-9,0.1,15.66,158.62,25.31,-9
AOML_Explorer,Ex0513W,87.317,28032005,7:36:58,24.014,-81.562,373.15,-9,1011.49,1008.57,24.48,24.65,36.379,1.35,75.94,31.52,1011.49,246.9,20.2,305,19.56,362.53,2,-9,9,-9,0.1,16.24,158.73,25.33,-9
AOML_Explorer,Ex0513W,87.319,28032005,7:39:31,24.008,-81.576,373.5,-9,1011.47,1008.59,24.54,24.67,36.379,1.36,76.02,31.52,1011.47,246.4,20.3,307,18.53,362.2,2,-9,9,-9,0.1,14.95,158.37,25.31,-9
AOML_Explorer,Ex0513W,87.321,28032005,7:42:04,24.002,-81.591,373.85,-9,1011.39,1008.56,24.57,24.6,36.395,1.33,75.73,31.52,1011.39,246.9,20.3,306,19.56,361.25,2,-9,9,-9,0.11,16.02,159.74,25.25,-9
AOML_Explorer,Ex0513W,87.323,28032005,7:44:37,23.997,-81.605,374.26,-9,1011.34,1008.57,24.56,24.54,36.39,1.33,76.04,31.51,1011.34,247,20.2,306,19.04,361.04,2,-9,9,-9,0.1,15.7,158.39,25.23,-9
AOML_Explorer,Ex0513W,87.324,28032005,7:47:10,23.991,-81.62,374.5,-9,1011.32,1008.60,24.5,24.52,36.387,1.36,76.14,31.5,1011.32,246.2,20.2,306,18.53,361.68,2,-9,9,-9,0.09,15.15,157.21,25.21,-9
AOML_Explorer,Ex0513W,87.326,28032005,7:49:43,23.985,-81.634,374.34,-9,1011.49,1008.52,24.46,24.49,36.399,1.34,76.09,31.5,1011.49,247.5,20,307,19.04,361.85,2,-9,9,-9,0.11,15.59,159.96,25.18,-9
AOML_Explorer,Ex0513W,87.328,28032005,7:52:16,23.979,-81.648,374.05,-9,1011.62,1008.77,24.45,24.61,36.379,1.31,76.21,31.49,1011.62,246.1,20.1,311,18.53,363.23,2,-9,9,-9,0.1,14.16,162.79,25.2,-9
AOML_Explorer,Ex0513W,87.33,28032005,7:54:49,23.974,-81.663,373.86,-9,1011.76,1009.09,24.47,24.63,36.392,1.31,76.55,31.49,1011.76,246.4,20.1,312,16.99,363.19,2,-9,9,-9,0.11,12.7,160.93,25.19,-9
AOML_Explorer,Ex0513W,87.332,28032005,7:57:22,23.968,-81.677,373.71,-9,1012.02,1009.34,24.54,24.63,36.392,1.36,76.45,31.48,1012.02,246.1,20.1,316,16.99,362.21,2,-9,9,-9,0.1,11.91,165.35,25.12,-9
AOML_Explorer,Ex0513W,87.333,28032005,7:59:55,23.962,-81.691,374.12,-9,1011.9,1009.05,24.55,24.6,36.402,1.34,76.58,31.48,1011.9,246.5,20,317,17.5,362.03,2,-9,9,-9,0.11,12.2,168.29,25.11,-9
AOML_Explorer,Ex0513W,87.347,28032005,8:19:07,23.92,-81.799,373.79,-9,1011.26,1008.57,24.56,24.6,36.384,1.34,76.02,31.5,1011.26,246.6,20,309,18.01,361.24,2,-9,9,-9,0.09,13.98,161.19,25.22,-9
AOML_Explorer,Ex0513W,87.348,28032005,8:21:40,23.914,-81.813,374.27,-9,1011.23,1008.58,24.55,24.63,36.357,1.35,76.23,31.5,1011.23,246.5,20,312,17.5,362.2,2,-9,9,-9,0.11,13.05,162.9,25.23,-9
AOML_Explorer,Ex0513W,87.35,28032005,8:24:13,23.909,-81.827,374.25,-9,1011.02,1008.22,24.53,24.78,36.297,1.34,76.94,31.5,1011.02,246.6,20,308,18.01,364.56,2,-9,9,-9,0.12,14.2,159.9,25.27,-9
AOML_Explorer,Ex0513W,87.352,28032005,8:26:46,23.903,-81.841,374.15,-9,1010.91,1007.98,24.62,24.83,36.262,1.32,75.77,31.49,1010.91,246.6,20,306,18.01,363.69,2,-9,9,-9,0.13,14.59,157.67,25.33,-9
AOML_Explorer,Ex0513W,87.354,28032005,8:29:19,23.898,-81.856,374.11,-9,1010.81,1008.02,24.71,24.97,36.163,1.35,76.66,31.49,1010.81,246.5,19.9,306,18.01,364.3,2,-9,9,-9,0.15,14.58,157.85,25.34,-9
AOML_Explorer,Ex0513W,87.356,28032005,8:31:52,23.892,-81.87,373.94,-9,1011.03,1008.21,24.78,24.97,36.115,1.35,76.57,31.48,1011.03,246.5,12.5,307,17.5,363.19,2,-9,9,-9,0.16,14.55,172.99,25.36,-9
AOML_Explorer,Ex0513W,87.357,28032005,8:34:25,23.886,-81.884,373.5,-9,1011.05,1008.52,24.85,24.97,36.084,1.32,76.51,31.48,1011.05,246.5,19.8,309,16.99,361.75,2,-9,9,-9,0.18,13.22,158.6,25.42,-9
AOML_Explorer,Ex0513W,87.359,28032005,8:36:58,23.881,-81.898,372.75,-9,1011.13,1008.55,24.85,25.07,36.018,1.35,75.96,31.47,1011.13,246.4,19.7,312,16.99,362.4,2,-9,9,-9,0.17,12.66,162.11,25.44,-9
AOML_Explorer,Ex0513W,87.361,28032005,8:39:31,23.875,-81.912,371.89,-9,1011.4,1008.81,24.89,25.18,36.015,1.34,74.68,31.47,1011.4,246.6,19.6,311,17.5,362.48,2,-9,9,-9,0.16,13.2,163.11,25.42,-9
AOML_Explorer,Ex0513W,87.363,28032005,8:42:04,23.87,-81.926,370.95,-9,1011.49,1009.08,24.99,25.26,36.027,1.33,75.92,31.46,1011.49,246.4,19.5,321,15.96,361.42,2,-9,9,-9,0.18,10.24,170.21,25.47,-9
AOML_Explorer,Ex0513W,87.364,28032005,8:44:37,23.864,-81.94,370.4,-9,1011.62,1008.74,25.08,25.37,36.051,1.34,76.22,31.46,1011.62,246.5,19.4,321,15.96,361.09,2,-9,9,-9,0.16,10.24,170.67,25.47,-9
AOML_Explorer,Ex0513W,87.366,28032005,8:47:10,23.859,-81.954,369.98,-9,1011.5,1008.79,25.16,25.51,36.085,1.33,76.36,31.45,1011.5,246.6,19.4,314,16.99,361.46,2,-9,9,-9,0.14,12.26,165.67,25.46,-9
AOML_Explorer,Ex0513W,87.368,28032005,8:49:43,23.853,-81.967,369.89,-9,1011.28,1008.51,25.26,25.67,36.111,1.36,76.44,31.44,1011.28,246.8,19.3,312,16.99,361.9,2,-9,9,-9,0.14,12.62,163.78,25.5,-9
AOML_Explorer,Ex0513W,87.37,28032005,8:52:16,23.848,-81.981,370.15,-9,1011.26,1008.58,25.41,25.76,36.141,1.33,76.05,31.44,1011.26,246.5,19.2,312,16.99,361.27,2,-9,9,-9,0.12,12.57,164.08,25.48,-9
AOML_Explorer,Ex0513W,87.371,28032005,8:54:49,23.842,-81.995,370.79,-9,1011.32,1008.57,25.54,25.77,36.154,1.35,75.97,31.43,1011.32,246.7,19.3,317,17.5,360.25,2,-9,9,-9,0.11,12.1,171.46,25.52,-9
AOML_Explorer,Ex0513W,87.373,28032005,8:57:22,23.837,-82.008,371.48,-9,1011.47,1008.77,25.59,25.76,36.163,1.33,76.64,31.43,1011.47,246.4,19.2,316,16.99,360.16,2,-9,9,-9,0.11,11.72,169.76,25.49,-9
AOML_Explorer,Ex0513W,87.375,28032005,8:59:55,23.832,-82.022,372.13,-9,1011.59,1009.09,25.59,25.8,36.159,1.33,76.29,31.42,1011.59,246.5,19,320,15.96,361.32,2,-9,9,-9,0.1,10.16,172.77,25.47,-9
AOML_Explorer,Ex0513W,87.39,28032005,9:21:40,23.786,-82.137,370.21,-9,1011.47,1008.87,25.72,25.91,36.025,1.33,76.5,31.46,1011.47,246.4,19.1,315,14.93,358.99,2,-9,9,-9,0.11,10.1,163.39,25.42,-9
AOML_Explorer,Ex0513W,87.392,28032005,9:24:13,23.781,-82.151,370.41,-9,1011.36,1008.80,25.73,25.91,36.016,1.34,75.73,31.46,1011.36,246.7,19.2,317,15.44,359.08,2,-9,9,-9,0.11,10.19,167.3,25.42,-9
AOML_Explorer,Ex0513W,87.394,28032005,9:26:46,23.775,-82.164,370.54,-9,1011.41,1008.81,25.73,25.92,36.002,1.33,76.75,31.46,1011.41,246.7,19.3,318,14.41,359.43,2,-9,9,-9,0.11,9.26,163.98,25.49,-9
AOML_Explorer,Ex0513W,87.395,28032005,9:29:19,23.77,-82.178,370.42,-9,1011.48,1009.10,25.73,25.92,36,1.35,76.22,31.45,1011.48,246.6,19.2,318,14.93,359.21,2,-9,9,-9,0.11,9.63,166.38,25.45,-9
AOML_Explorer,Ex0513W,87.397,28032005,9:31:52,23.764,-82.192,370.34,-9,1011.4,1008.86,25.74,25.93,35.987,1.34,76.59,31.45,1011.4,246.6,19.4,314,14.93,359.12,2,-9,9,-9,0.11,10.34,161.41,25.39,-9
AOML_Explorer,Ex0513W,87.399,28032005,9:34:25,23.759,-82.205,370.33,-9,1011.32,1008.80,25.74,25.93,35.978,1.35,76.68,31.45,1011.32,246.6,19.4,316,14.93,359.08,2,-9,9,-9,0.12,10,163.27,25.39,-9
AOML_Explorer,Ex0513W,87.401,28032005,9:36:58,23.754,-82.219,370.22,-9,1011.48,1008.86,25.75,25.94,35.967,1.33,76.43,31.44,1011.48,246.2,19.4,322,14.41,359.07,2,-9,9,-9,0.12,8.57,167.83,25.49,-9
AOML_Explorer,Ex0513W,87.402,28032005,9:39:31,23.748,-82.233,370.13,-9,1011.43,1009.15,25.76,25.94,35.962,1.34,76.13,31.44,1011.43,246.7,19.5,319,14.41,358.85,2,-9,9,-9,0.12,9.1,164.31,25.47,-9
AOML_Explorer,Ex0513W,87.404,28032005,9:42:04,23.742,-82.247,369.94,-9,1011.49,1009.14,25.76,25.94,35.957,1.33,76.82,31.43,1011.49,246.2,19.6,320,13.38,358.63,2,-9,9,-9,0.12,8.17,159.88,25.43,-9
AOML_Explorer,Ex0513W,87.406,28032005,9:44:37,23.737,-82.261,369.82,-9,1011.53,1008.80,25.76,25.94,35.953,1.35,75.8,31.42,1011.53,246.6,19.5,324,14.93,358.59,2,-9,9,-9,0.12,8.64,172.43,25.37,-9
AOML_Explorer,Ex0513W,87.408,28032005,9:47:10,23.731,-82.275,369.72,-9,1011.43,1008.81,25.76,25.95,35.954,1.34,76.21,31.42,1011.43,246.5,19.6,320,14.93,358.51,2,-9,9,-9,0.11,9.33,166.93,25.57,-9
AOML_Explorer,Ex0513W,87.41,28032005,9:49:43,23.726,-82.289,369.69,-9,1011.38,1008.81,25.77,25.95,35.96,1.34,76.1,31.41,1011.38,246.5,19.6,322,15.44,358.36,2,-9,9,-9,0.11,9.42,171.12,25.5,-9
AOML_Explorer,Ex0513W,87.411,28032005,9:52:16,23.72,-82.303,369.66,-9,1011.35,1008.81,25.77,25.94,35.97,1.37,76.27,31.41,1011.35,246.7,19.7,322,16.47,358.28,2,-9,9,-9,0.11,10.21,174.74,25.51,-9
AOML_Explorer,Ex0513W,87.413,28032005,9:54:49,23.715,-82.317,369.74,-9,1011.23,1008.52,25.77,25.95,35.984,1.34,76.25,31.41,1011.23,246.8,19.8,315,16.99,358.4,2,-9,9,-9,0.11,11.89,167.51,25.55,-9
AOML_Explorer,Ex0513W,87.415,28032005,9:57:22,23.709,-82.331,369.81,-9,1011.18,1008.55,25.77,25.96,36.009,1.34,76.5,31.41,1011.18,246.2,19.8,318,18.01,358.6,2,-9,9,-9,0.1,12.19,173.09,25.56,-9
AOML_Explorer,Ex0513W,87.417,28032005,9:59:55,23.704,-82.345,370.05,-9,1011.33,1008.59,25.78,25.94,36.024,1.36,75.88,31.4,1011.33,246.4,19.8,317,17.5,358.42,2,-9,9,-9,0.11,11.94,170.6,25.59,-9
AOML_Explorer,Ex0513W,87.432,28032005,10:21:40,23.656,-82.465,370.62,-9,1011.35,1008.59,25.76,25.97,36.109,1.36,76.29,31.45,1011.35,246.6,19.8,320,18.01,359.61,2,-9,9,-9,0.09,12.04,174.59,25.81,-9
AOML_Explorer,Ex0513W,87.434,28032005,10:24:13,23.65,-82.479,371.36,-9,1011.28,1008.60,25.78,25.98,36.122,1.32,75.98,31.45,1011.28,246.5,19.9,315,17.5,360.12,2,-9,9,-9,0.08,12.47,166.82,25.74,-9
AOML_Explorer,Ex0513W,87.435,28032005,10:26:46,23.645,-82.494,372.03,-9,1011.25,1008.60,25.79,25.95,36.107,1.37,76.78,31.44,1011.25,246.5,19.9,318,19.04,360.29,2,-9,9,-9,0.08,13.24,174.17,25.67,-9
AOML_Explorer,Ex0513W,87.437,28032005,10:29:19,23.639,-82.508,372.59,-9,1011.18,1008.62,25.77,25.96,36.119,1.37,74.5,31.44,1011.18,246.4,19.9,318,18.53,361.22,2,-9,9,-9,0.08,12.82,172.76,25.72,-9
AOML_Explorer,Ex0513W,87.439,28032005,10:31:52,23.634,-82.522,372.84,-9,1011,1008.03,25.78,25.94,36.127,1.33,75.1,31.43,1011,246.3,19.9,314,20.07,361.06,2,-9,9,-9,0.08,14.9,170.64,25.7,-9
AOML_Explorer,Ex0513W,87.441,28032005,10:34:25,23.628,-82.536,372.96,-9,1010.99,1008.05,25.77,25.97,36.135,1.34,75.06,31.43,1010.99,246.3,19.9,312,19.56,361.7,2,-9,9,-9,0.08,14.87,166.98,25.75,-9
AOML_Explorer,Ex0513W,87.442,28032005,10:36:58,23.622,-82.55,373,-9,1011.03,1008.06,25.78,25.97,36.142,1.35,76.23,31.43,1011.03,246.8,19.9,313,20.59,361.47,2,-9,9,-9,0.08,15.6,170.58,25.65,-9
AOML_Explorer,Ex0513W,87.444,28032005,10:39:31,23.617,-82.564,373.23,-9,1011.17,1007.99,25.79,25.95,36.139,1.35,76.06,31.42,1011.17,246.4,20,313,22.13,361.5,2,-9,9,-9,0.08,17.01,172.05,25.77,-9
AOML_Explorer,Ex0513W,87.446,28032005,10:42:04,23.611,-82.579,373.27,-9,1011.29,1008.01,25.77,25.94,36.143,1.34,76.48,31.42,1011.29,247,20,316,21.62,361.66,2,-9,9,-9,0.08,15.97,175.88,25.68,-9
AOML_Explorer,Ex0513W,87.448,28032005,10:44:37,23.606,-82.593,373.3,-9,1011.2,1008.03,25.77,25.93,36.145,1.35,75.88,31.41,1011.2,246.6,19.9,317,21.1,361.55,2,-9,9,-9,0.07,15.4,175.71,25.7,-9
AOML_Explorer,Ex0513W,87.449,28032005,10:47:10,23.6,-82.607,373.12,-9,1011.35,1008.60,25.75,25.93,36.14,1.32,75.83,31.41,1011.35,246.2,19.7,315,19.56,361.71,2,-9,9,-9,0.07,14.37,170.76,25.7,-9
AOML_Explorer,Ex0513W,87.451,28032005,10:49:43,23.594,-82.621,372.95,-9,1011.4,1008.29,25.74,25.95,36.14,1.35,75.84,31.41,1011.4,246.5,19.7,319,20.07,361.99,2,-9,9,-9,0.08,14.18,176.62,25.65,-9
AOML_Explorer,Ex0513W,87.453,28032005,10:52:16,23.588,-82.634,372.88,-9,1011.36,1008.59,25.76,26.03,36.12,1.37,76.65,31.4,1011.36,243.2,19.6,318,20.07,362.62,2,-9,9,-9,0.07,14.23,173.34,25.6,-9
AOML_Explorer,Ex0513W,87.455,28032005,10:54:49,23.582,-82.648,372.79,-9,1011.41,1008.60,25.78,26.06,36.128,1.33,76.11,31.4,1011.41,242.6,19.7,321,20.07,362.65,2,-9,9,-9,0.08,13.71,176.49,25.62,-9
AOML_Explorer,Ex0513W,87.457,28032005,10:57:22,23.575,-82.661,372.99,-9,1011.47,1008.57,25.84,26.08,36.129,1.34,76.39,31.4,1011.47,243.1,19.6,320,20.07,362.28,2,-9,9,-9,0.08,13.97,175.19,25.63,-9
AOML_Explorer,Ex0513W,87.458,28032005,10:59:55,23.569,-82.675,373.31,-9,1011.54,1008.28,25.87,26.07,36.13,1.38,75.07,31.39,1011.54,243.4,19.5,317,22.13,362.13,2,-9,9,-9,0.07,16.39,174.89,25.57,-9
AOML_Explorer,Ex0513W,87.473,28032005,11:21:40,23.516,-82.788,374.33,-9,1011.47,1008.81,25.92,26.06,36.117,1.34,76.68,31.42,1011.47,242.8,19,321,18.01,362.31,2,-9,9,-9,0.09,12.07,173.43,25.87,-9
AOML_Explorer,Ex0513W,87.475,28032005,11:24:13,23.51,-82.801,374.45,-9,1011.4,1008.58,25.89,25.99,36.113,1.31,74.25,31.42,1011.4,243.2,19,319,19.04,361.9,2,-9,9,-9,0.09,13.37,172.91,25.96,-9
AOML_Explorer,Ex0513W,87.477,28032005,11:26:46,23.504,-82.815,374.26,-9,1011.26,1008.62,25.82,26.02,36.111,1.34,76.27,31.42,1011.26,247.9,19,314,19.04,363.04,2,-9,9,-9,0.09,14.29,170.87,25.86,-9
AOML_Explorer,Ex0513W,87.479,28032005,11:29:19,23.499,-82.828,373.95,-9,1011.43,1008.61,25.82,26.03,36.105,1.34,75.83,31.41,1011.43,247.7,18.9,318,20.59,362.88,2,-9,9,-9,0.09,15,178.66,25.94,-9
AOML_Explorer,Ex0513W,87.481,28032005,11:31:52,23.494,-82.842,373.65,-9,1011.52,1008.61,25.84,26.07,36.079,1.32,76.25,31.41,1011.52,247.7,18.9,318,20.07,362.89,2,-9,9,-9,0.1,14.47,178.24,25.85,-9